G4CVN Weather Reports


Display with metric or nautical units.
time (UTC)temp
F
wind
direction
speed
MPH
gust
MPH
rain 1hr
in
rain 24hr
in
rain mn
in
humidity
%
barometer
mb
20260904122017 73 68 3.0 7.0 0.00 0.02 0.02 62 1018.8
20260904121017 73 68 3.0 11.0 0.00 0.02 0.02 62 1018.6
20260904120017 73 68 2.0 6.0 0.00 0.02 0.02 68 1018.3
20260904115017 73 225 3.0 7.0 0.00 0.02 0.02 70 1018.2
20260904114017 72 45 2.0 5.0 0.00 0.02 0.02 73 1017.9
20260904113017 71 225 2.0 8.0 0.00 0.02 0.02 74 1018.1
20260904112017 71 23 3.0 7.0 0.00 0.02 0.02 77 1018.0
20260904111057 70 248 2.0 7.0 0.00 0.02 0.02 82 1017.8
20260904110017 69 248 3.0 6.0 0.00 0.02 0.02 82 1017.8
20260904105037 69 68 2.0 7.0 0.00 0.02 0.02 84 1017.8
20260904104017 68 225 2.0 6.0 0.00 0.02 0.02 84 1017.8
20260904103017 68 248 2.0 4.0 0.00 0.02 0.02 86 1017.7
20260904102017 68 225 1.0 3.0 0.00 0.02 0.02 88 1017.5
20260904101017 67 293 1.0 7.0 0.00 0.02 0.02 88 1017.5
20260904100017 67 203 2.0 8.0 0.00 0.02 0.02 88 1017.2
20260904095017 67 225 2.0 4.0 0.00 0.02 0.02 91 1017.1
20260904094018 67 225 2.0 4.0 0.00 0.02 0.02 92 1017.1
20260904093018 66 203 1.0 4.0 0.00 0.02 0.02 91 1017.2
20260904092017 66 225 2.0 5.0 0.02 0.02 0.02 91 1017.2
20260904091020 67 180 1.0 4.0 0.02 0.02 0.02 92 1017.1
20260904090039 67 23 1.0 4.0 0.02 0.02 0.02 91 1017.2
20260904085018 67 338 1.0 6.0 0.02 0.02 0.02 90 1017.0
20260904084017 67 68 1.0 3.0 0.02 0.02 0.02 90 1016.9
20260904083017 68 0 2.0 5.0 0.02 0.02 0.02 89 1016.8
20260904082017 69 180 5.0 11.0 0.01 0.01 0.01 90 1016.3
20260904081017 69 203 6.0 14.0 0.00 0.00 0.00 89 1015.9
20260904080017 69 180 5.0 10.0 0.00 0.00 0.00 89 1015.8
20260904075037 69 203 5.0 10.0 0.00 0.00 0.00 89 1015.8
20260904074018 69 180 5.0 12.0 0.00 0.00 0.00 90 1015.8
20260904073017 69 203 4.0 14.0 0.00 0.00 0.00 90 1015.9
20260904072018 68 203 4.0 8.0 0.00 0.00 0.00 90 1015.8
20260904071037 68 225 4.0 8.0 0.00 0.00 0.00 90 1016.0
20260904070017 68 203 4.0 9.0 0.00 0.00 0.00 90 1016.1
20260904065017 68 203 4.0 8.0 0.00 0.00 0.00 91 1016.1
20260904064017 68 203 3.0 9.0 0.00 0.00 0.00 91 1016.1
20260904063017 67 203 4.0 9.0 0.00 0.00 0.00 92 1016.1
20260904062017 67 203 4.0 9.0 0.00 0.00 0.00 93 1016.2
20260904061017 67 203 4.0 11.0 0.00 0.00 0.00 93 1016.3
20260904060017 67 203 4.0 8.0 0.00 0.00 0.00 94 1016.3
20260904055017 67 203 3.0 10.0 0.00 0.00 0.00 93 1016.3
20260904054017 67 203 4.0 7.0 0.00 0.00 0.00 93 1016.1
20260904053017 67 203 4.0 8.0 0.00 0.00 0.00 93 1016.2
20260904052037 68 203 4.0 8.0 0.00 0.00 0.00 93 1016.2
20260904051018 68 203 4.0 9.0 0.00 0.00 0.00 92 1016.3
20260904050017 68 180 4.0 9.0 0.00 0.00 0.00 92 1016.2
20260904045017 68 203 4.0 10.0 0.00 0.00 0.00 92 1016.3
20260904044018 68 203 5.0 10.0 0.00 0.00 0.00 92 1016.5
20260904043017 68 203 4.0 10.0 0.00 0.00 0.00 92 1016.5
20260904042018 68 180 5.0 11.0 0.00 0.00 0.00 92 1016.6
20260904041018 68 203 4.0 8.0 0.00 0.00 0.00 91 1016.5
20260904040017 68 203 5.0 10.0 0.00 0.00 0.00 91 1016.8
20260904035017 68 180 4.0 12.0 0.00 0.00 0.00 91 1017.0
20260904034017 68 203 5.0 11.0 0.00 0.00 0.00 91 1017.0
20260904033017 68 203 4.0 8.0 0.00 0.00 0.00 91 1017.3
20260904032018 68 203 4.0 9.0 0.00 0.00 0.00 91 1017.4
20260904031017 68 203 4.0 10.0 0.00 0.00 0.00 91 1017.4
20260904030017 68 203 4.0 8.0 0.00 0.00 0.00 91 1017.5
20260904025017 68 203 4.0 9.0 0.00 0.00 0.00 91 1017.5
20260904024017 68 203 4.0 7.0 0.00 0.00 0.00 91 1017.6
20260904023017 68 203 3.0 7.0 0.00 0.00 0.00 91 1017.6
20260904022017 68 203 3.0 7.0 0.00 0.00 0.00 90 1017.8
20260904021017 68 203 4.0 11.0 0.00 0.00 0.00 90 1017.9
20260904020019 68 203 4.0 10.0 0.00 0.00 0.00 90 1018.1
20260904015019 68 203 3.0 6.0 0.00 0.00 0.00 90 1018.3
20260904014017 68 180 3.0 7.0 0.00 0.00 0.00 89 1018.4
20260904013019 68 203 5.0 9.0 0.00 0.00 0.00 89 1018.5
20260904012017 68 225 3.0 6.0 0.00 0.00 0.00 89 1018.6
20260904011018 68 203 3.0 7.0 0.00 0.00 0.00 89 1018.5
20260904010018 68 203 2.0 6.0 0.00 0.00 0.00 90 1018.7
20260904005017 68 203 4.0 8.0 0.00 0.00 0.00 90 1018.7
20260904004018 68 203 4.0 10.0 0.00 0.00 0.00 90 1018.9
20260904003017 68 180 3.0 7.0 0.00 0.00 0.00 90 1019.1
20260904002020 68 203 3.0 8.0 0.00 0.00 0.00 91 1019.2
20260904001037 68 203 3.0 5.0 0.00 0.00 0.00 91 1019.3
20260904000037 68 225 2.0 5.0 0.00 0.00 0.00 91 1019.5
20260903235019 67 203 3.0 7.0 0.00 0.00 0.00 91 1019.6
20260903234017 67 225 3.0 5.0 0.00 0.00 0.00 91 1019.6
20260903233019 67 180 2.0 4.0 0.00 0.00 0.00 91 1019.6
20260903232037 67 225 2.0 4.0 0.00 0.00 0.00 90 1019.8
20260903231059 67 225 2.0 4.0 0.00 0.00 0.00 90 1020.0
20260903230018 67 203 2.0 5.0 0.00 0.00 0.00 89 1020.0
20260903225019 67 203 2.0 5.0 0.00 0.00 0.00 89 1020.1
20260903224017 67 203 2.0 5.0 0.00 0.00 0.00 89 1020.2
20260903223017 67 203 3.0 8.0 0.00 0.00 0.00 89 1020.4
20260903222018 67 203 1.0 3.0 0.00 0.00 0.00 88 1020.4
20260903221017 68 225 2.0 4.0 0.00 0.00 0.00 88 1020.5
20260903220037 68 225 2.0 4.0 0.00 0.00 0.00 87 1020.5
20260903215017 68 203 3.0 6.0 0.00 0.00 0.00 87 1020.5
20260903214017 68 203 4.0 8.0 0.00 0.00 0.00 88 1020.6
20260903213017 68 180 4.0 7.0 0.00 0.00 0.00 88 1020.8
20260903212018 68 203 2.0 6.0 0.00 0.00 0.00 88 1021.0
20260903211017 68 203 3.0 6.0 0.00 0.00 0.00 88 1020.9
20260903210017 69 180 2.0 7.0 0.00 0.00 0.00 88 1021.0
20260903205018 69 180 3.0 6.0 0.00 0.00 0.00 88 1020.9
20260903204037 69 203 2.0 6.0 0.00 0.00 0.00 88 1020.9
20260903203017 69 203 2.0 5.0 0.00 0.01 0.00 88 1020.7
20260903202059 69 225 2.0 5.0 0.00 0.01 0.00 88 1020.7
20260903201017 69 203 3.0 8.0 0.00 0.01 0.00 88 1020.8
20260903200017 69 203 3.0 7.0 0.00 0.01 0.00 88 1021.0
20260903195038 69 203 3.0 5.0 0.00 0.01 0.00 88 1021.1
20260903194017 69 203 3.0 7.0 0.00 0.01 0.00 88 1021.1
20260903193017 69 180 3.0 5.0 0.00 0.01 0.00 88 1021.2
20260903192017 69 203 4.0 8.0 0.00 0.01 0.00 88 1021.3
20260903191018 69 180 2.0 6.0 0.00 0.01 0.00 88 1021.2
20260903190017 69 203 2.0 4.0 0.00 0.01 0.00 88 1021.1
20260903185017 70 203 3.0 6.0 0.00 0.01 0.00 87 1021.0
20260903184017 70 203 2.0 7.0 0.00 0.01 0.00 86 1020.9
20260903183038 70 203 3.0 6.0 0.00 0.01 0.00 85 1021.0
20260903182057 71 203 3.0 7.0 0.00 0.01 0.00 84 1021.1
20260903181017 71 203 3.0 5.0 0.00 0.02 0.00 84 1021.2
20260903180017 71 225 3.0 7.0 0.00 0.02 0.00 83 1021.2
20260903175017 72 203 3.0 7.0 0.00 0.02 0.00 83 1021.3
20260903174017 72 225 3.0 7.0 0.00 0.02 0.00 83 1021.3
20260903173018 72 225 3.0 9.0 0.00 0.02 0.00 83 1021.2
20260903172017 72 203 4.0 8.0 0.00 0.02 0.00 82 1021.2
20260903171015 73 225 3.0 6.0 0.00 0.03 0.00 82 1021.2
20260903170016 73 203 4.0 8.0 0.00 0.03 0.00 82 1021.1
20260903165015 73 203 4.0 7.0 0.00 0.03 0.00 81 1021.2
20260903164017 74 225 3.0 7.0 0.00 0.03 0.00 80 1021.3
20260903163016 74 203 3.0 6.0 0.00 0.03 0.00 79 1021.2
20260903162015 75 203 4.0 8.0 0.00 0.03 0.00 79 1021.3
20260903161015 75 203 3.0 8.0 0.00 0.03 0.00 80 1021.4
20260903160015 75 203 4.0 9.0 0.00 0.03 0.00 79 1021.6
20260903155035 75 203 4.0 8.0 0.00 0.03 0.00 79 1021.6
20260903154015 75 180 4.0 11.0 0.00 0.03 0.00 78 1021.8
20260903153015 75 203 4.0 8.0 0.00 0.03 0.00 79 1021.7
20260903152017 75 203 3.0 6.0 0.00 0.03 0.00 80 1021.8
20260903151016 74 203 4.0 10.0 0.00 0.03 0.00 80 1021.8
20260903150016 74 203 3.0 8.0 0.00 0.03 0.00 81 1021.9
20260903145015 74 225 3.0 7.0 0.00 0.03 0.00 81 1021.8
20260903144015 74 203 4.0 8.0 0.00 0.03 0.00 80 1021.9
20260903143015 75 203 4.0 8.0 0.00 0.03 0.00 77 1021.9
20260903142017 75 203 4.0 12.0 0.00 0.03 0.00 78 1021.9
20260903141015 76 225 4.0 9.0 0.00 0.03 0.00 77 1022.0
20260903140015 76 203 5.0 10.0 0.00 0.03 0.00 78 1021.9
20260903135015 76 225 4.0 9.0 0.00 0.03 0.00 77 1022.0
20260903134015 76 180 3.0 7.0 0.00 0.03 0.00 77 1022.0
20260903133016 76 225 4.0 7.0 0.00 0.03 0.00 78 1022.0
20260903132018 74 225 3.0 9.0 0.00 0.03 0.00 80 1022.0
20260903131016 74 225 2.0 5.0 0.00 0.03 0.00 80 1022.1
20260903130017 74 203 3.0 10.0 0.00 0.03 0.00 79 1022.4
20260903125036 74 203 2.0 6.0 0.00 0.03 0.00 80 1022.4
20260903124016 74 203 2.0 5.0 0.00 0.03 0.00 78 1022.4
20260903123016 74 180 3.0 7.0 0.00 0.03 0.00 77 1022.3